| time (UTC) | temp F | wind direction | speed knots | gust knots | rain 1hr in | rain 24hr in | rain mn in | humidity % | barometer mb |
| 20260906114304 | 72 | 242 | 0.0 | 0.0 | 0.00 | 0.31 | 0.00 | 76 | 1012.5 |
| 20260906113804 | 71 | 242 | 0.0 | 0.0 | 0.00 | 0.31 | 0.00 | 76 | 1012.5 |
| 20260906113304 | 71 | 242 | 0.0 | 0.0 | 0.00 | 0.31 | 0.00 | 76 | 1012.5 |
| 20260906111804 | 71 | 242 | 0.0 | 0.0 | 0.00 | 0.31 | 0.00 | 76 | 1012.2 |
| 20260906111304 | 71 | 242 | 0.0 | 0.0 | 0.00 | 0.31 | 0.00 | 76 | 1012.1 |
| 20260906110804 | 71 | 242 | 0.0 | 0.0 | 0.00 | 0.31 | 0.00 | 76 | 1012.1 |
| 20260906110304 | 71 | 242 | 0.0 | 2.6 | 0.00 | 0.31 | 0.00 | 76 | 1012.1 |
| 20260906104804 | 71 | 242 | 0.9 | 1.7 | 0.00 | 0.31 | 0.00 | 76 | 1012.1 |
| 20260906103804 | 71 | 242 | 0.0 | 0.0 | 0.00 | 0.31 | 0.00 | 76 | 1012.1 |
| 20260906103304 | 71 | 242 | 0.0 | 0.0 | 0.00 | 0.31 | 0.00 | 76 | 1012.0 |
| 20260906101804 | 71 | 249 | 0.0 | 1.7 | 0.00 | 0.31 | 0.00 | 76 | 1011.9 |
| 20260906101305 | 71 | 249 | 0.0 | 2.6 | 0.00 | 0.31 | 0.00 | 76 | 1012.1 |
| 20260906100805 | 71 | 253 | 1.7 | 2.6 | 0.00 | 0.31 | 0.00 | 76 | 1011.9 |
| 20260906100304 | 71 | 228 | 0.0 | 0.9 | 0.00 | 0.31 | 0.00 | 76 | 1011.9 |
| 20260906094805 | 71 | 228 | 0.0 | 0.9 | 0.00 | 0.31 | 0.00 | 76 | 1011.6 |
| 20260906094304 | 71 | 228 | 0.0 | 0.9 | 0.00 | 0.31 | 0.00 | 76 | 1011.5 |
| 20260906093804 | 71 | 228 | 0.0 | 1.7 | 0.00 | 0.31 | 0.00 | 76 | 1011.4 |
| 20260906093305 | 71 | 228 | 0.0 | 2.6 | 0.00 | 0.31 | 0.00 | 76 | 1011.5 |
| 20260906091804 | 71 | 245 | 0.9 | 1.7 | 0.00 | 0.31 | 0.00 | 76 | 1011.5 |
| 20260906091305 | 71 | 245 | 0.0 | 0.0 | 0.00 | 0.31 | 0.00 | 76 | 1011.5 |
| 20260906090804 | 71 | 245 | 0.0 | 0.0 | 0.00 | 0.31 | 0.00 | 76 | 1011.5 |
| 20260906090304 | 71 | 245 | 0.0 | 0.0 | 0.00 | 0.31 | 0.00 | 76 | 1011.5 |
| 20260906084804 | 71 | 245 | 0.0 | 1.7 | 0.00 | 0.31 | 0.00 | 76 | 1011.4 |
| 20260906084304 | 71 | 245 | 0.0 | 0.9 | 0.00 | 0.31 | 0.00 | 76 | 1011.5 |
| 20260906083804 | 71 | 245 | 0.0 | 0.0 | 0.00 | 0.31 | 0.00 | 76 | 1011.5 |
| 20260906083304 | 71 | 245 | 0.0 | 0.0 | 0.00 | 0.31 | 0.00 | 76 | 1011.4 |
| 20260906081804 | 71 | 245 | 0.0 | 0.0 | 0.00 | 0.31 | 0.00 | 76 | 1011.4 |
| 20260906081303 | 71 | 245 | 0.0 | 0.0 | 0.00 | 0.31 | 0.00 | 76 | 1011.4 |
| 20260906080804 | 71 | 245 | 0.0 | 0.9 | 0.00 | 0.31 | 0.00 | 76 | 1011.5 |
| 20260906080304 | 71 | 245 | 0.0 | 0.9 | 0.00 | 0.31 | 0.00 | 76 | 1011.4 |
| 20260906074805 | 71 | 245 | 0.0 | 0.0 | 0.00 | 0.31 | 0.00 | 76 | 1011.4 |
| 20260906073805 | 71 | 245 | 0.0 | 0.0 | 0.00 | 0.31 | 0.00 | 76 | 1011.4 |
| 20260906073305 | 71 | 245 | 0.0 | 0.0 | 0.00 | 0.31 | 0.00 | 76 | 1011.4 |
| 20260906071804 | 71 | 245 | 0.0 | 0.0 | 0.00 | 0.31 | 0.00 | 76 | 1011.8 |
| 20260906071304 | 72 | 245 | 0.0 | 0.0 | 0.00 | 0.31 | 0.00 | 76 | 1011.8 |
| 20260906070804 | 72 | 245 | 0.0 | 0.0 | 0.00 | 0.31 | 0.00 | 76 | 1011.9 |
| 20260906070304 | 72 | 245 | 0.0 | 0.0 | 0.00 | 0.31 | 0.00 | 76 | 1011.9 |
| 20260906064805 | 72 | 245 | 0.0 | 0.9 | 0.00 | 0.31 | 0.00 | 76 | 1012.0 |
| 20260906064304 | 72 | 245 | 0.0 | 0.9 | 0.00 | 0.31 | 0.00 | 76 | 1012.0 |
| 20260906063804 | 72 | 245 | 0.0 | 1.7 | 0.00 | 0.31 | 0.00 | 76 | 1011.9 |
| 20260906063305 | 72 | 245 | 0.0 | 1.7 | 0.00 | 0.31 | 0.00 | 76 | 1011.9 |
| 20260906061804 | 72 | 241 | 0.0 | 0.9 | 0.00 | 0.31 | 0.00 | 76 | 1011.9 |
| 20260906060803 | 72 | 241 | 0.9 | 0.9 | 0.00 | 0.31 | 0.00 | 76 | 1011.8 |
| 20260906060304 | 73 | 241 | 0.0 | 0.0 | 0.00 | 0.31 | 0.00 | 76 | 1011.9 |
| 20260906054804 | 73 | 241 | 0.0 | 0.0 | 0.00 | 0.31 | 0.00 | 76 | 1011.9 |
| 20260906054304 | 73 | 241 | 0.0 | 0.9 | 0.00 | 0.31 | 0.00 | 76 | 1011.8 |
| 20260906053804 | 73 | 241 | 0.0 | 0.9 | 0.00 | 0.31 | 0.00 | 76 | 1011.9 |
| 20260906053304 | 73 | 241 | 0.0 | 0.9 | 0.00 | 0.31 | 0.00 | 76 | 1011.8 |
| 20260906051804 | 72 | 241 | 0.0 | 0.9 | 0.00 | 0.31 | 0.00 | 76 | 1011.6 |
| 20260906050805 | 72 | 241 | 0.0 | 0.9 | 0.00 | 0.31 | 0.00 | 76 | 1011.6 |
| 20260906050304 | 72 | 241 | 0.0 | 0.9 | 0.00 | 0.31 | 0.00 | 76 | 1011.6 |
| 20260906044804 | 72 | 241 | 0.0 | 0.0 | 0.00 | 0.31 | 0.00 | 76 | 1011.7 |
| 20260906044304 | 72 | 241 | 0.0 | 0.0 | 0.00 | 0.31 | 0.00 | 76 | 1011.7 |
| 20260906043804 | 72 | 241 | 0.0 | 0.0 | 0.00 | 0.31 | 0.00 | 76 | 1011.8 |
| 20260906041803 | 72 | 241 | 0.0 | 0.0 | 0.00 | 0.31 | 0.00 | 76 | 1012.5 |
| 20260906041304 | 72 | 241 | 0.0 | 0.0 | 0.00 | 0.31 | 0.00 | 76 | 1012.5 |
| 20260906040304 | 72 | 241 | 0.0 | 0.0 | 0.00 | 0.31 | 0.00 | 76 | 1012.9 |
| 20260906034804 | 72 | 241 | 0.0 | 0.0 | 0.00 | 0.31 | 0.57 | 76 | 1012.8 |
| 20260906033804 | 73 | 241 | 0.0 | 0.0 | 0.01 | 0.31 | 0.57 | 76 | 1012.9 |
| 20260906033305 | 73 | 241 | 0.0 | 0.0 | 0.01 | 0.31 | 0.57 | 76 | 1012.7 |
| 20260906031804 | 73 | 241 | 0.0 | 0.9 | 0.01 | 0.31 | 0.57 | 76 | 1012.9 |
| 20260906031303 | 73 | 241 | 0.0 | 0.9 | 0.01 | 0.31 | 0.57 | 76 | 1012.9 |
| 20260906030804 | 73 | 241 | 0.0 | 0.9 | 0.01 | 0.31 | 0.57 | 76 | 1013.2 |
| 20260906024804 | 73 | 241 | 0.0 | 2.6 | 0.01 | 0.31 | 0.57 | 76 | 1013.2 |
| 20260906024303 | 73 | 241 | 0.0 | 2.6 | 0.00 | 0.30 | 0.56 | 76 | 1013.2 |
| 20260906023804 | 73 | 241 | 0.9 | 2.6 | 0.00 | 0.30 | 0.56 | 76 | 1013.4 |
| 20260906023303 | 73 | 241 | 0.0 | 0.9 | 0.00 | 0.30 | 0.56 | 76 | 1012.8 |
| 20260906021804 | 73 | 241 | 0.0 | 2.6 | 0.00 | 0.30 | 0.56 | 76 | 1012.8 |
| 20260906020804 | 72 | 249 | 1.7 | 5.2 | 0.00 | 0.30 | 0.56 | 76 | 1012.8 |
| 20260906020304 | 72 | 243 | 2.6 | 5.2 | 0.00 | 0.30 | 0.56 | 76 | 1012.8 |
| 20260906014804 | 72 | 148 | 1.7 | 5.2 | 0.00 | 0.30 | 0.56 | 76 | 1012.8 |
| 20260906014304 | 72 | 164 | 1.7 | 4.3 | 0.00 | 0.30 | 0.56 | 76 | 1012.8 |
| 20260906013804 | 72 | 166 | 1.7 | 6.1 | 0.00 | 0.30 | 0.56 | 76 | 1012.9 |
| 20260906013303 | 72 | 161 | 2.6 | 6.1 | 0.00 | 0.30 | 0.56 | 76 | 1013.0 |
| 20260906011804 | 73 | 140 | 0.0 | 5.2 | 0.00 | 0.30 | 0.56 | 76 | 1012.9 |
| 20260906010804 | 73 | 124 | 0.9 | 4.3 | 0.00 | 0.30 | 0.56 | 76 | 1012.3 |
| 20260906010305 | 73 | 43 | 1.7 | 2.6 | 0.00 | 0.30 | 0.56 | 76 | 1012.1 |
| 20260906004804 | 72 | 35 | 0.0 | 0.0 | 0.00 | 0.30 | 0.56 | 76 | 1011.6 |
| 20260906004304 | 72 | 35 | 0.0 | 0.9 | 0.00 | 0.30 | 0.56 | 76 | 1011.7 |
| 20260906003804 | 72 | 35 | 0.0 | 0.9 | 0.00 | 0.30 | 0.56 | 76 | 1011.7 |
| 20260906003304 | 72 | 35 | 0.0 | 0.9 | 0.01 | 0.30 | 0.56 | 76 | 1011.7 |
| 20260906001804 | 72 | 35 | 0.0 | 1.7 | 0.03 | 0.30 | 0.56 | 76 | 1011.8 |
| 20260906001303 | 72 | 35 | 0.9 | 1.7 | 0.06 | 0.30 | 0.56 | 76 | 1011.7 |
| 20260906000804 | 72 | 35 | 0.0 | 0.0 | 0.10 | 0.30 | 0.56 | 76 | 1011.7 |
| 20260906000304 | 71 | 35 | 0.0 | 0.0 | 0.12 | 0.30 | 0.56 | 76 | 1011.8 |
| 20260905234804 | 71 | 35 | 0.0 | 0.9 | 0.51 | 0.30 | 0.56 | 76 | 1011.8 |
| 20260905234303 | 71 | 35 | 0.0 | 0.9 | 0.55 | 0.30 | 0.56 | 76 | 1011.8 |
| 20260905233804 | 71 | 35 | 0.0 | 1.7 | 0.56 | 0.30 | 0.56 | 76 | 1012.0 |
| 20260905233304 | 71 | 35 | 0.0 | 2.6 | 0.55 | 0.29 | 0.55 | 76 | 1012.0 |
| 20260905231803 | 71 | 110 | 0.0 | 5.2 | 0.52 | 0.27 | 0.52 | 76 | 1013.0 |
| 20260905231305 | 71 | 95 | 1.7 | 14.8 | 0.49 | 0.24 | 0.49 | 76 | 1013.3 |
| 20260905224805 | 75 | 47 | 5.2 | 26.1 | 0.15 | 0.15 | 0.15 | 76 | 1013.1 |
| 20260905224305 | 79 | 107 | 8.7 | 26.1 | 0.05 | 0.05 | 0.05 | 76 | 1012.6 |
| 20260905223305 | 86 | 352 | 0.9 | 4.3 | 0.00 | 0.00 | 0.00 | 76 | 1012.0 |
| 20260905221805 | 87 | 266 | 0.0 | 4.3 | 0.00 | 0.00 | 0.00 | 76 | 1011.3 |
| 20260905221304 | 87 | 253 | 0.0 | 7.8 | 0.00 | 0.00 | 0.00 | 76 | 1011.4 |
| 20260905220805 | 87 | 272 | 4.3 | 8.7 | 0.00 | 0.00 | 0.00 | 76 | 1011.2 |
| 20260905220304 | 87 | 230 | 1.7 | 8.7 | 0.00 | 0.00 | 0.00 | 76 | 1010.9 |
| 20260905214804 | 89 | 260 | 2.6 | 7.0 | 0.00 | 0.00 | 0.00 | 76 | 1010.5 |
| 20260905214304 | 89 | 243 | 1.7 | 5.2 | 0.00 | 0.00 | 0.00 | 76 | 1010.3 |
| 20260905213805 | 89 | 260 | 1.7 | 4.3 | 0.00 | 0.00 | 0.00 | 76 | 1010.6 |
| 20260905213304 | 90 | 252 | 1.7 | 7.0 | 0.00 | 0.00 | 0.00 | 76 | 1010.6 |
| 20260905211805 | 90 | 249 | 1.7 | 5.2 | 0.00 | 0.00 | 0.00 | 76 | 1010.7 |
| 20260905210805 | 90 | 271 | 1.7 | 5.2 | 0.00 | 0.00 | 0.00 | 76 | 1010.7 |
| 20260905210304 | 90 | 237 | 1.7 | 5.2 | 0.00 | 0.00 | 0.00 | 76 | 1010.8 |
| 20260905204805 | 91 | 232 | 1.7 | 7.0 | 0.00 | 0.00 | 0.00 | 76 | 1010.2 |
| 20260905204305 | 91 | 249 | 3.5 | 7.0 | 0.00 | 0.00 | 0.00 | 76 | 1010.4 |
| 20260905203805 | 91 | 266 | 2.6 | 7.0 | 0.00 | 0.00 | 0.00 | 76 | 1010.5 |
| 20260905203305 | 91 | 248 | 2.6 | 7.0 | 0.00 | 0.00 | 0.00 | 76 | 1010.6 |
| 20260905201805 | 91 | 276 | 2.6 | 7.0 | 0.00 | 0.00 | 0.00 | 76 | 1010.7 |
| 20260905201304 | 91 | 274 | 2.6 | 7.0 | 0.00 | 0.00 | 0.00 | 76 | 1010.6 |
| 20260905200805 | 91 | 285 | 0.9 | 7.0 | 0.00 | 0.00 | 0.00 | 76 | 1010.7 |
| 20260905200304 | 91 | 244 | 1.7 | 7.0 | 0.00 | 0.00 | 0.00 | 76 | 1010.6 |
| 20260905194805 | 92 | 273 | 3.5 | 7.0 | 0.00 | 0.00 | 0.00 | 76 | 1010.7 |
| 20260905194304 | 93 | 260 | 0.9 | 7.0 | 0.00 | 0.00 | 0.00 | 76 | 1010.7 |
| 20260905193805 | 92 | 255 | 2.6 | 6.1 | 0.00 | 0.00 | 0.00 | 76 | 1010.6 |
| 20260905193304 | 92 | 246 | 2.6 | 7.0 | 0.00 | 0.00 | 0.00 | 76 | 1010.8 |
| 20260905191805 | 93 | 258 | 5.2 | 8.7 | 0.00 | 0.00 | 0.00 | 76 | 1011.1 |
| 20260905191305 | 93 | 258 | 1.7 | 7.0 | 0.00 | 0.00 | 0.00 | 76 | 1011.2 |
| 20260905184805 | 94 | 283 | 3.5 | 8.7 | 0.00 | 0.00 | 0.00 | 76 | 1011.7 |
| 20260905184304 | 94 | 257 | 3.5 | 8.7 | 0.00 | 0.00 | 0.00 | 76 | 1011.8 |
| 20260905183805 | 94 | 269 | 0.9 | 4.3 | 0.00 | 0.00 | 0.00 | 76 | 1011.8 |
| 20260905183304 | 94 | 256 | 1.7 | 5.2 | 0.00 | 0.00 | 0.00 | 76 | 1012.0 |
| 20260905181805 | 94 | 80 | 1.7 | 4.3 | 0.00 | 0.00 | 0.00 | 76 | 1012.1 |
| 20260905181304 | 95 | 114 | 2.6 | 4.3 | 0.00 | 0.00 | 0.00 | 76 | 1012.2 |
| 20260905180805 | 95 | 20 | 0.9 | 2.6 | 0.00 | 0.00 | 0.00 | 76 | 1012.2 |
| 20260905180304 | 94 | 79 | 0.9 | 4.3 | 0.00 | 0.00 | 0.00 | 76 | 1012.3 |
| 20260905174304 | 94 | 270 | 0.9 | 4.3 | 0.00 | 0.00 | 0.00 | 76 | 1012.5 |
| 20260905171805 | 94 | 113 | 1.7 | 4.3 | 0.00 | 0.00 | 0.00 | 76 | 1012.7 |
| 20260905171304 | 94 | 48 | 0.9 | 2.6 | 0.00 | 0.00 | 0.00 | 76 | 1012.8 |
| 20260905170805 | 94 | 296 | 0.9 | 5.2 | 0.00 | 0.00 | 0.00 | 76 | 1012.9 |
| 20260905170304 | 93 | 89 | 0.9 | 5.2 | 0.00 | 0.00 | 0.00 | 76 | 1013.0 |
| 20260905164805 | 93 | 260 | 1.7 | 5.2 | 0.00 | 0.00 | 0.00 | 76 | 1013.2 |
| 20260905164304 | 93 | 41 | 1.7 | 7.0 | 0.00 | 0.00 | 0.00 | 76 | 1013.3 |
| 20260905163805 | 93 | 72 | 2.6 | 7.0 | 0.00 | 0.00 | 0.00 | 76 | 1013.3 |
| 20260905163304 | 93 | 108 | 2.6 | 4.3 | 0.00 | 0.00 | 0.00 | 76 | 1013.4 |
| 20260905161804 | 92 | 48 | 2.6 | 6.1 | 0.00 | 0.00 | 0.00 | 76 | 1013.6 |
| 20260905161305 | 92 | 111 | 1.7 | 4.3 | 0.00 | 0.00 | 0.00 | 76 | 1013.7 |
| 20260905160804 | 92 | 8 | 1.7 | 2.6 | 0.00 | 0.00 | 0.00 | 76 | 1013.6 |
| 20260905160305 | 92 | 292 | 1.7 | 6.1 | 0.00 | 0.00 | 0.00 | 76 | 1013.8 |
| 20260905154804 | 91 | 117 | 2.6 | 5.2 | 0.00 | 0.00 | 0.00 | 76 | 1014.2 |
| 20260905154304 | 91 | 16 | 0.9 | 5.2 | 0.00 | 0.00 | 0.00 | 76 | 1014.1 |
| 20260905153804 | 91 | 116 | 0.9 | 5.2 | 0.00 | 0.00 | 0.00 | 76 | 1014.1 |
| 20260905151305 | 90 | 100 | 1.7 | 4.3 | 0.00 | 0.00 | 0.00 | 76 | 1014.4 |
| 20260905150805 | 90 | 135 | 2.6 | 5.2 | 0.00 | 0.00 | 0.00 | 76 | 1014.6 |
| 20260905150305 | 90 | 33 | 2.6 | 5.2 | 0.00 | 0.00 | 0.00 | 76 | 1014.5 |
| 20260905144805 | 89 | 31 | 0.9 | 6.1 | 0.00 | 0.00 | 0.00 | 76 | 1014.6 |
| 20260905144304 | 89 | 23 | 0.9 | 6.1 | 0.00 | 0.00 | 0.00 | 76 | 1014.5 |
| 20260905143805 | 88 | 38 | 2.6 | 6.1 | 0.00 | 0.00 | 0.00 | 76 | 1014.6 |
| 20260905143305 | 88 | 137 | 1.7 | 5.2 | 0.00 | 0.00 | 0.00 | 76 | 1014.5 |
| 20260905141804 | 87 | 255 | 1.7 | 4.3 | 0.00 | 0.00 | 0.00 | 76 | 1014.6 |
| 20260905141304 | 87 | 163 | 0.9 | 4.3 | 0.00 | 0.00 | 0.00 | 76 | 1014.7 |
| 20260905140805 | 86 | 31 | 0.9 | 6.1 | 0.00 | 0.00 | 0.00 | 76 | 1014.8 |
| 20260905140304 | 86 | 354 | 1.7 | 6.1 | 0.00 | 0.00 | 0.00 | 76 | 1014.8 |
| 20260905134804 | 85 | 102 | 2.6 | 7.0 | 0.00 | 0.00 | 0.00 | 76 | 1014.8 |
| 20260905133804 | 84 | 42 | 1.7 | 5.2 | 0.00 | 0.00 | 0.00 | 76 | 1014.9 |
| 20260905133305 | 83 | 36 | 0.9 | 7.0 | 0.00 | 0.00 | 0.00 | 76 | 1014.8 |
| 20260905131805 | 82 | 139 | 0.9 | 4.3 | 0.00 | 0.00 | 0.00 | 76 | 1014.9 |
| 20260905131305 | 81 | 71 | 0.0 | 4.3 | 0.00 | 0.00 | 0.00 | 76 | 1014.8 |
| 20260905130804 | 81 | 136 | 1.7 | 4.3 | 0.00 | 0.00 | 0.00 | 76 | 1014.9 |
| 20260905130304 | 80 | 102 | 0.9 | 2.6 | 0.00 | 0.00 | 0.00 | 76 | 1014.9 |
| 20260905124805 | 79 | 76 | 0.9 | 5.2 | 0.00 | 0.00 | 0.00 | 76 | 1014.9 |
| 20260905124304 | 79 | 18 | 1.7 | 6.1 | 0.00 | 0.00 | 0.00 | 76 | 1015.0 |
| 20260905123804 | 79 | 71 | 0.9 | 6.1 | 0.00 | 0.00 | 0.00 | 76 | 1014.9 |
| 20260905123304 | 79 | 230 | 0.9 | 4.3 | 0.00 | 0.00 | 0.00 | 76 | 1014.9 |
| 20260905121804 | 78 | 108 | 0.0 | 6.1 | 0.00 | 0.00 | 0.00 | 76 | 1014.8 |
| 20260905121304 | 78 | 316 | 0.9 | 2.6 | 0.00 | 0.00 | 0.00 | 76 | 1014.9 |
| 20260905120805 | 78 | 37 | 0.0 | 4.3 | 0.00 | 0.00 | 0.00 | 76 | 1014.9 |
| 20260905120304 | 78 | 37 | 0.9 | 4.3 | 0.00 | 0.00 | 0.00 | 76 | 1014.9 |
| 20260905114804 | 77 | 59 | 0.9 | 4.3 | 0.00 | 0.00 | 0.00 | 76 | 1014.7 |